DW7831 Weather Reports


time (UTC)temp
F
wind
direction
speed
knots
gust
knots
rain 1hr
in
rain 24hr
in
rain mn
in
humidity
%
barometer
mb
20260504220024 66 213 6.1 0.0 0.00 0.00 0.00 38 1006.7
20260504214518 67 178 3.5 0.0 0.00 0.00 0.00 38 1006.7
20260504213021 67 222 4.3 0.0 0.00 0.00 0.00 38 1006.9
20260504211519 66 228 5.2 0.0 0.00 0.00 0.00 38 1007.0
20260504210016 66 228 6.1 0.0 0.00 0.00 0.00 38 1007.0
20260504204518 66 243 6.1 0.0 0.00 0.00 0.00 38 1007.1
20260504203017 67 186 5.2 0.0 0.00 0.00 0.00 38 1007.1
20260504201514 65 186 5.2 0.0 0.00 0.00 0.00 40 1007.2
20260504200017 66 200 3.5 0.0 0.00 0.00 0.00 39 1007.6
20260504194513 66 195 4.3 0.0 0.00 0.00 0.00 39 1007.8
20260504193013 64 240 4.3 0.0 0.00 0.00 0.00 40 1008.0
20260504191514 66 280 5.2 0.0 0.00 0.00 0.00 40 1008.3
20260504190008 64 248 3.5 0.0 0.00 0.00 0.00 41 1008.3
20260504184506 63 292 6.1 0.0 0.00 0.00 0.00 42 1008.5
20260504183005 63 219 7.0 0.0 0.00 0.00 0.00 41 1008.6
20260504181505 64 229 7.8 0.0 0.00 0.00 0.00 41 1008.5
20260504180003 63 237 6.1 0.0 0.00 0.00 0.00 41 1008.4
20260504174507 62 244 7.0 0.0 0.00 0.00 0.00 43 1008.6
20260504173008 62 220 5.2 0.0 0.00 0.00 0.00 43 1008.7
20260504171505 62 225 7.8 0.0 0.00 0.00 0.00 42 1008.8
20260504081544 44 203 3.5 0.0 0.00 0.00 0.00 59 1011.7
20260504050019 44 220 0.9 0.0 0.00 0.00 0.00 58 1011.7
20260504044520 44 220 0.9 0.0 0.00 0.00 0.00 58 1012.0
20260504043031 44 220 0.9 0.0 0.00 0.00 0.00 59 1012.1
20260504041511 43 214 0.0 0.0 0.00 0.00 0.00 59 1012.4
20260504040012 43 214 0.0 0.0 0.00 0.00 0.00 59 1012.4
20260504034507 42 217 0.9 0.0 0.00 0.00 0.00 59 1012.3
20260504033004 41 238 0.9 0.0 0.00 0.00 0.00 60 1012.4
20260504031602 39 240 0.9 0.0 0.00 0.00 0.00 60 1012.4
20260504030054 38 244 0.0 0.0 0.00 0.00 0.00 60 1012.3
20260504024553 37 244 0.0 0.0 0.00 0.00 0.00 61 1012.4
20260504023047 38 244 0.0 0.0 0.00 0.00 0.00 63 1012.5
20260504021543 38 244 0.0 0.0 0.00 0.00 0.00 64 1012.4
20260504020104 39 244 0.0 0.0 0.00 0.00 0.00 64 1012.3
20260504014548 40 244 0.0 0.0 0.00 0.00 0.00 64 1012.4
20260504013037 41 244 0.0 0.0 0.00 0.00 0.00 63 1012.5
20260504011526 42 244 0.0 0.0 0.00 0.00 0.00 62 1012.2
20260504010022 42 244 0.0 0.0 0.00 0.00 0.00 61 1012.0
20260504004522 43 244 0.0 0.0 0.00 0.00 0.00 59 1011.9
20260504003016 44 244 0.0 0.0 0.00 0.00 0.00 58 1011.8
20260504001512 45 244 0.0 0.0 0.00 0.00 0.00 57 1011.7
20260504000008 45 242 1.7 0.0 0.00 0.00 0.00 56 1011.8
20260503234504 46 267 1.7 0.0 0.00 0.00 0.00 55 1011.6
20260503233107 46 240 5.2 0.0 0.00 0.00 0.00 55 1011.6
20260503231558 47 252 7.0 0.0 0.00 0.00 0.00 53 1011.6
20260503230109 47 215 6.1 0.0 0.00 0.00 0.00 50 1011.5
20260503224556 48 266 1.7 0.0 0.00 0.00 0.00 49 1011.1
20260503223045 48 9 2.6 0.0 0.00 0.00 0.00 48 1011.2
20260503221539 48 232 4.3 0.0 0.00 0.00 0.00 45 1011.2